Terug naar catalogus

STARLINK-4366

ActiefCommunicatieSSO
NORAD 53227·PAYLOAD·🇺🇸 United States

Gelanceerd Jul 22, 2022 vanaf Vandenberg Space Force Base

Loading…

Volgende Passages (komende 24 uur)

TLE

VersSource: CelesTrak SupGP

Epoch: Sep 14, 2026, 20:52 UTC

1 53227C 22084AQ  26257.86993056 -.00035638  00000+0 -11063-2 0  2579
2 53227  97.2840 313.6003 0001640  92.5209  72.7096 15.33457675    13

Volg STARLINK-4366 in realtime met AllMySat

Download on the App Store